[[{"header":{"parameterUnit":"m.s-1","parameterCategory":1,"la1":30.2992,"la2":30.254,"lo1":-89.0895,"lo2":-89.0443,"dy":0.0025,"dx":0.0025,"nx":19,"ny":19,"refTime":"2026-03-23T03:00:00:Z","depth":0,"parameterNumber":2,"parameterNumberName":"U-component_of_WINDS"},"data":[0,0,0,3.645,3.6453,3.6616,3.6617,3.6836,3.6838,0,0,0,0,0,0,0,0,0,0,0,3.6407,3.6409,3.645,3.6454,3.6616,3.6617,3.6836,3.6838,0,0,0,0,0,0,0,0,0,0,0,3.6406,3.6408,3.641,3.6454,3.6616,3.6617,3.6836,3.6709,0,0,0,0,0,0,0,0,0,0,3.6549,3.6514,3.6408,3.641,3.6455,3.6616,3.6617,3.6703,3.6717,3.6767,0,3.6812,0,3.6829,3.6854,3.6855,0,0,0,3.645,3.6503,3.6542,3.6411,3.6457,3.6616,3.6542,3.6711,3.6727,3.6786,3.6815,3.6823,3.6832,3.6855,3.6856,3.7154,3.7155,0,0,3.6441,3.6439,3.6531,3.6552,3.6526,3.6537,3.6547,3.672,3.6752,3.6816,3.6828,3.6836,3.6857,3.6858,3.7152,3.7154,0,0,0,3.6418,3.6433,3.6468,3.6544,3.6572,3.6542,3.6553,3.6744,3.6756,3.683,3.6838,3.6858,3.6861,3.7151,3.7153,3.7227,0,0,0,3.6412,3.642,3.6464,3.6465,3.6569,3.666,3.6574,3.6744,3.6763,3.6837,3.6858,3.6863,3.7149,3.7152,3.7221,3.7262,0,0,0,3.6395,3.6418,3.6443,3.6464,3.6534,3.6657,3.6678,3.6748,3.6769,3.6855,3.6864,3.7148,3.7151,3.7216,3.7253,3.7338,0,0,0,3.6376,3.6508,3.6444,3.6595,3.6533,3.6702,3.6677,3.6804,3.6886,3.6859,3.7149,3.7153,3.7214,3.7248,3.7333,3.7408,3.744,0,0,3.6541,3.6527,3.6616,3.6564,3.6744,3.6677,3.6868,3.6946,3.6957,3.7088,3.7095,3.7223,3.7253,3.7337,3.762,3.7645,0,0,0,3.6668,3.6732,3.678,3.6858,3.692,3.6977,3.7025,3.7055,3.7165,3.7023,3.7278,3.7296,3.7345,3.7381,3.7402,3.7444,3.717,3.7169,3.7169,3.6899,3.6905,3.7052,3.7077,3.7154,3.7203,3.7265,3.7313,3.7297,3.7357,3.7395,3.7567,3.7609,3.7625,3.7668,3.7437,3.7438,3.7438,3.7438,3.7141,3.7231,3.7207,3.7341,3.7347,3.746,3.7513,3.7498,3.7605,3.7538,3.7582,3.7507,3.7652,3.769,3.7444,3.7443,3.7442,3.7442,3.7441,3.7291,3.7335,3.7368,3.7481,3.7568,3.759,3.7693,3.7696,3.7699,3.7743,3.7782,3.7781,3.7779,3.7762,3.7762,3.7763,3.7763,3.7764,3.7764,3.7432,3.7467,3.7553,3.763,3.7681,3.7747,3.7799,3.7849,3.7905,3.7899,3.7899,3.7877,3.7666,3.7611,3.7773,3.7772,3.7771,3.777,3.7769,3.7671,3.7618,3.775,3.7801,3.7892,3.7978,3.798,3.8082,3.8124,3.8175,3.8144,3.7988,3.7974,3.7958,3.7912,3.8143,3.8143,3.8143,3.8143,3.7796,3.779,3.7926,3.8006,3.8085,3.8101,3.8251,3.8293,3.8328,3.8355,3.8323,3.8264,3.8247,3.8243,3.822,3.8178,3.8471,3.8471,3.8471,3.7943,3.7944,3.8071,3.8103,3.8175,3.8237,3.8378,3.8473,3.8502,3.8485,3.8375,3.8362,3.8267,3.8236,3.8214,3.8178,3.8101,0,0]},{"header":{"parameterUnit":"m.s-1","parameterCategory":1,"la1":30.2992,"la2":30.254,"lo1":-89.0895,"lo2":-89.0443,"dy":0.0025,"dx":0.0025,"nx":19,"ny":19,"refTime":"2026-03-23T03:00:00:Z","depth":0,"parameterNumber":3,"parameterNumberName":"V-component_of_WINDS"},"data":[0,0,0,3.0819,3.0822,3.0995,3.0996,3.1214,3.1216,0,0,0,0,0,0,0,0,0,0,0,3.0767,3.0768,3.0818,3.0823,3.0995,3.0996,3.1213,3.1216,0,0,0,0,0,0,0,0,0,0,0,3.0766,3.0768,3.077,3.0823,3.0995,3.0996,3.1213,3.1084,0,0,0,0,0,0,0,0,0,0,3.0917,3.0868,3.0767,3.077,3.0824,3.0994,3.0996,3.1077,3.1092,3.1135,0,3.1173,0,3.1198,3.123,3.1231,0,0,0,3.0823,3.0856,3.0903,3.077,3.0826,3.0994,3.0917,3.1085,3.1102,3.1154,3.1176,3.1185,3.1202,3.1232,3.1233,3.1481,3.1482,0,0,3.0814,3.0797,3.0892,3.0914,3.0887,3.0912,3.0923,3.1095,3.1119,3.1177,3.119,3.1205,3.1233,3.1235,3.148,3.1481,0,0,0,3.0786,3.0791,3.0834,3.0905,3.0936,3.0917,3.0929,3.1111,3.1126,3.1192,3.1208,3.1234,3.1237,3.1479,3.148,3.1521,0,0,0,3.078,3.0774,3.0829,3.0821,3.0933,3.1026,3.0941,3.1115,3.1135,3.1207,3.1234,3.1239,3.1477,3.148,3.1517,3.1543,0,0,0,3.0756,3.0771,3.0796,3.082,3.0893,3.1023,3.1049,3.1119,3.1144,3.1231,3.124,3.1477,3.1479,3.1514,3.1538,3.1604,0,0,0,3.0725,3.0829,3.0796,3.0919,3.0892,3.1047,3.1048,3.1164,3.1243,3.1235,3.1478,3.148,3.1513,3.1534,3.16,3.1658,3.168,0,0,3.0847,3.0843,3.0917,3.0893,3.105,3.1022,3.1185,3.1273,3.1296,3.1418,3.1424,3.1518,3.1537,3.1603,3.1808,3.1826,0,0,0,3.095,3.1003,3.1048,3.1123,3.1193,3.1255,3.132,3.1353,3.1457,3.1355,3.156,3.1572,3.1612,3.164,3.1655,3.169,3.1492,3.1492,3.1492,3.11,3.1124,3.1248,3.1293,3.1366,3.1432,3.1493,3.1548,3.1551,3.1599,3.1636,3.1757,3.1789,3.1801,3.1837,3.1667,3.1667,3.1667,3.1668,3.1282,3.1361,3.1363,3.1483,3.1508,3.161,3.1677,3.1676,3.1774,3.1731,3.1767,3.172,3.1819,3.1852,3.1671,3.167,3.167,3.167,3.1669,3.1384,3.1426,3.1464,3.1575,3.1658,3.17,3.1794,3.1813,3.1832,3.1867,3.1909,3.1908,3.191,3.1885,3.1886,3.1886,3.1887,3.1887,3.1887,3.1474,3.1516,3.1593,3.1677,3.1728,3.1797,3.1864,3.1915,3.1976,3.1982,3.1983,3.1981,3.1824,3.1785,3.1894,3.1893,3.1892,3.1891,3.1891,3.1651,3.1614,3.1734,3.1785,3.1885,3.1966,3.1989,3.2091,3.2135,3.2181,3.2172,3.2052,3.2049,3.2038,3.2005,3.2165,3.2165,3.2166,3.2166,3.1737,3.1738,3.1865,3.1945,3.2026,3.206,3.2194,3.2247,3.2296,3.2325,3.2305,3.2263,3.225,3.2255,3.2239,3.2209,3.2417,3.2418,3.2418,3.1848,3.1857,3.1968,3.2017,3.2096,3.2164,3.2291,3.2383,3.2431,3.2428,3.2349,3.2338,3.2271,3.2248,3.2244,3.2218,3.2164,0,0]}]]